This is the latest recevied weather packets stored in our database for station/object DF1GD-10. If no packets are shown the sender has not sent any weather packets the latest 10 day(s).
| Time | Temp. | Humidity | Pressure | Rain* | Wind** | Luminosity | Snow |
|---|---|---|---|---|---|---|---|
| 1788196199 | 20° C | 39% | 1018.5 hPa | - | - | - | - |
| 1788195299 | 20.56° C | 39% | 1018.4 hPa | - | - | - | - |
| 1788194399 | 20.56° C | 40% | 1018.3 hPa | - | - | - | - |
| 1788193499 | 20° C | 43% | 1018.1 hPa | - | - | - | - |
| 1788192599 | 18.33° C | 46% | 1018.2 hPa | - | - | - | - |
| 1788191699 | 18.33° C | 50% | 1018.3 hPa | - | - | - | - |
| 1788190798 | 18.89° C | 48% | 1018 hPa | - | - | - | - |
| 1788189898 | 21.67° C | 31% | 1017.6 hPa | - | - | - | - |
| 1788188998 | 22.78° C | 28% | 1017.1 hPa | - | - | - | - |
| 1788188098 | 22.78° C | 31% | 1017 hPa | - | - | - | - |
| 1788187198 | 21.67° C | 35% | 1017 hPa | - | - | - | - |
| 1788186298 | 21.67° C | 37% | 1016.9 hPa | - | - | - | - |
| 1788185398 | 25° C | 32% | 1016.9 hPa | - | - | - | - |
| 1788184498 | 25.56° C | 32% | 1017.2 hPa | - | - | - | - |
| 1788183597 | 24.44° C | 35% | 1017.4 hPa | - | - | - | - |
| 1788182697 | 21.11° C | 43% | 1017.7 hPa | - | - | - | - |
| 1788181797 | 20° C | 46% | 1017.9 hPa | - | - | - | - |
| 1788180897 | 20.56° C | 44% | 1017.7 hPa | - | - | - | - |
| 1788179997 | 19.44° C | 46% | 1017.7 hPa | - | - | - | - |
| 1788179097 | 20° C | 44% | 1017.6 hPa | - | - | - | - |
| 1788178196 | 20.56° C | 36% | 1017.4 hPa | - | - | - | - |
| 1788177296 | 21.11° C | 35% | 1017.2 hPa | - | - | - | - |
| 1788176396 | 21.11° C | 34% | 1017.4 hPa | - | - | - | - |
| 1788175496 | 21.11° C | 34% | 1017.6 hPa | - | - | - | - |
| 1788174596 | 21.11° C | 36% | 1017.7 hPa | - | - | - | - |
* Rain since midnight (hover to see other rain measurements)
** Current wind speed in m/s (hover to see current wind gust speed)